Location: Gwatt
(46.7204°N, 7.6223°E)
Time: 01:30:55
(UTC+00:00)

Envisat - Pass Details

Date: 28 November 2020
Orbit: 764 x 766 km, 98.1° (Epoch: 19 January)

Event Time Altitude Azimuth Distance (km) Brightness Sun altitude
Rises 16:46:20 0° 176° (S) 3,219 6.5 -10.3°
Reaches altitude 10° 16:48:40 10° 180° (S) 2,298 5.7 -10.7°
Maximum altitude 16:53:40 58° 260° (W) 895 3.7 -11.5°
Drops below altitude 10° 16:58:41 10° 339° (NNW) 2,315 5.5 -12.3°
Sets 17:01:03 0° 343° (NNW) 3,246 6.2 -12.7°
